EW2910 Weather Reports


Display with metric or nautical units.
time (UTC)temp
F
wind
direction
speed
MPH
gust
MPH
rain 1hr
in
rain 24hr
in
rain mn
in
humidity
%
barometer
mb
20260905073106 76 0 0.0 0.0 0.00 0.05 0.00 95 1013.8
20260905071608 77 0 0.0 0.0 0.00 0.05 0.00 95 1014.0
20260905070105 77 0 0.0 0.0 0.00 0.05 0.00 94 1014.0
20260905064602 77 0 0.0 0.0 0.00 0.05 0.00 94 1014.1
20260905063101 77 0 0.0 0.0 0.00 0.05 0.00 94 1014.2
20260905061610 77 0 0.0 1.0 0.00 0.05 0.00 95 1014.2
20260905060106 77 0 0.0 0.0 0.00 0.05 0.00 95 1014.3
20260905054603 78 0 0.0 0.0 0.00 0.05 0.00 95 1014.4
20260905053141 78 0 0.0 0.0 0.00 0.05 0.00 95 1014.8
20260905051607 78 0 0.0 0.0 0.00 0.05 0.00 95 1015.0
20260905050106 78 0 0.0 0.0 0.00 0.05 0.00 94 1015.0
20260905044603 79 0 0.0 0.0 0.00 0.05 0.00 94 1015.3
20260905043103 79 0 0.0 1.0 0.00 0.05 0.00 94 1015.2
20260905041604 78 0 0.0 0.0 0.00 0.05 0.00 94 1015.2
20260905040105 78 0 0.0 0.0 0.00 0.05 0.00 94 1015.2
20260905034602 78 0 0.0 0.0 0.00 0.05 0.05 94 1015.2
20260905033107 78 0 0.0 0.0 0.00 0.05 0.05 93 1015.4
20260905031603 78 0 0.0 0.0 0.00 0.05 0.05 93 1015.5
20260905024623 79 0 0.0 0.0 0.00 0.05 0.05 93 1015.6
20260905023124 79 0 0.0 0.0 0.00 0.05 0.05 92 1015.7
20260905021609 79 0 0.0 0.0 0.00 0.05 0.05 91 1015.6
20260905020111 79 0 0.0 0.0 0.00 0.05 0.05 91 1015.7
20260905014617 79 0 0.0 0.0 0.00 0.05 0.05 92 1015.5
20260905013108 79 0 0.0 0.0 0.00 0.05 0.05 92 1015.3
20260905011622 79 0 0.0 0.0 0.00 0.05 0.05 92 1015.2
20260905004608 80 0 0.0 0.0 0.00 0.05 0.05 92 1015.0
20260905003103 81 0 0.0 0.0 0.00 0.05 0.05 91 1015.2
20260905001603 81 0 0.0 3.0 0.00 0.05 0.05 91 1015.0
20260905000109 81 0 1.0 6.0 0.00 0.05 0.05 90 1015.1
20260904234612 81 345 4.0 8.0 0.00 0.05 0.05 90 1015.0
20260904233103 82 0 0.0 9.0 0.00 0.05 0.05 88 1015.1
20260904231603 82 323 4.0 10.0 0.00 0.05 0.05 88 1014.9
20260904230108 82 0 0.0 1.0 0.00 0.05 0.05 87 1014.6
20260904224614 82 0 0.0 0.0 0.00 0.05 0.05 86 1014.6
20260904223105 83 0 0.0 0.0 0.00 0.05 0.05 85 1014.5
20260904221612 83 0 0.0 4.0 0.00 0.05 0.05 85 1014.2
20260904220104 84 0 1.0 10.0 0.00 0.05 0.05 84 1013.9
20260904214605 88 0 1.0 6.0 0.00 0.05 0.05 78 1013.4
20260904213105 89 0 0.0 1.0 0.00 0.05 0.05 75 1013.6
20260904211604 88 0 0.0 5.0 0.00 0.05 0.05 77 1013.9
20260904210108 87 0 0.0 2.0 0.00 0.05 0.05 77 1014.1
20260904204600 85 0 0.0 5.0 0.00 0.05 0.05 79 1013.9
20260904203104 84 0 0.0 3.0 0.00 0.05 0.05 81 1014.0
20260904201636 83 0 0.0 1.0 0.02 0.05 0.05 83 1013.6
20260904200122 82 278 0.0 4.0 0.05 0.05 0.05 87 1013.8
20260904194610 83 0 1.0 12.0 0.05 0.05 0.05 88 1013.9
20260904193110 87 238 0.0 5.0 0.05 0.05 0.05 85 1014.1
20260904191601 85 0 1.0 14.0 0.03 0.03 0.03 86 1014.2
20260904190108 89 297 7.0 13.0 0.00 0.00 0.00 74 1014.3
20260904184605 93 224 3.0 8.0 0.00 0.00 0.00 67 1014.3
20260904183102 94 229 1.0 9.0 0.00 0.00 0.00 67 1014.4
20260904181607 95 232 0.0 6.0 0.00 0.00 0.00 65 1014.9
20260904180104 95 223 3.0 9.0 0.00 0.00 0.00 65 1015.1
20260904174608 94 161 2.0 7.0 0.00 0.02 0.00 67 1015.2
20260904173130 92 226 1.0 8.0 0.00 0.02 0.00 69 1015.3
20260904171611 91 243 1.0 5.0 0.00 0.02 0.00 73 1015.5
20260904170105 91 0 0.0 5.0 0.00 0.02 0.00 73 1015.7
20260904164601 92 247 1.0 10.0 0.00 0.04 0.00 72 1015.9
20260904163108 92 234 3.0 8.0 0.00 0.04 0.00 72 1016.2
20260904161605 92 211 3.0 9.0 0.00 0.04 0.00 72 1016.3
20260904160106 91 187 0.0 10.0 0.00 0.04 0.00 73 1016.4
20260904154607 90 224 3.0 10.0 0.00 0.04 0.00 77 1016.4
20260904153105 89 193 4.0 9.0 0.00 0.04 0.00 77 1016.5
20260904151616 89 126 3.0 8.0 0.00 0.04 0.00 77 1016.5
20260904150125 89 165 1.0 6.0 0.00 0.04 0.00 76 1016.1
20260904144603 88 226 2.0 6.0 0.00 0.04 0.00 79 1016.1
20260904143113 87 0 2.0 6.0 0.00 0.04 0.00 81 1016.1
20260904141616 86 209 2.0 8.0 0.00 0.04 0.00 83 1016.0
20260904140106 86 0 0.0 6.0 0.00 0.04 0.00 84 1016.3
20260904134622 85 0 0.0 5.0 0.00 0.04 0.00 85 1016.1
20260904133110 84 0 0.0 2.0 0.00 0.04 0.00 86 1015.9
20260904131603 83 0 0.0 0.0 0.00 0.04 0.00 89 1015.9
20260904130109 81 0 0.0 2.0 0.00 0.04 0.00 92 1015.7
20260904124602 80 0 0.0 2.0 0.00 0.04 0.00 94 1015.6
20260904123107 78 0 0.0 2.0 0.00 0.04 0.00 95 1015.5
20260904121603 77 0 0.0 0.0 0.00 0.04 0.00 96 1015.6
20260904120107 76 0 0.0 0.0 0.00 0.04 0.00 98 1015.4
20260904114604 75 0 0.0 0.0 0.00 0.04 0.00 98 1015.2
20260904113103 74 0 0.0 0.0 0.00 0.04 0.00 98 1015.0
20260904111607 74 0 0.0 0.0 0.00 0.04 0.00 98 1015.0
20260904104605 74 0 0.0 0.0 0.00 0.04 0.00 97 1014.7
20260904103106 74 0 0.0 0.0 0.00 0.04 0.00 97 1014.6
20260904101602 74 0 0.0 0.0 0.00 0.04 0.00 97 1014.5
20260904100106 74 0 0.0 0.0 0.00 0.04 0.00 97 1014.4
20260904094605 74 0 0.0 0.0 0.00 0.04 0.00 97 1014.3
20260904093109 74 0 0.0 0.0 0.00 0.04 0.00 97 1014.2
20260904091606 74 0 0.0 0.0 0.00 0.04 0.00 97 1014.1
20260904090104 75 0 0.0 0.0 0.00 0.04 0.00 97 1014.1
20260904084603 75 0 0.0 0.0 0.00 0.04 0.00 97 1014.1
20260904083105 75 0 0.0 0.0 0.00 0.04 0.00 96 1014.1
20260904081604 75 0 0.0 0.0 0.00 0.04 0.00 96 1014.1
20260904080100 75 0 0.0 0.0 0.00 0.04 0.00 96 1014.2
20260904074603 75 0 0.0 0.0 0.00 0.04 0.00 96 1014.0